Flag for Germany Weather past 2 weeks in Wilhelmshaven, Lower Saxony, Germany

Now
48 °F

Partly sunny.


Feels Like: 45 °F
Forecast: 49 / 55 °F
Wind: 7 mph from South

Location: Wittmundhaven

Current Time: May 24, 2015 at 9:47:13 AM

Latest Report: May 24, 2015 at 8:20 AM


Visibility: N/A

Pressure: 30.15 "Hg

Humidity: 71%

Dew point: 39 °F

Location of WilhelmshavenLocation

Historic Weather in Wilhelmshaven — Graph

°F

Wilhelmshaven temperature yesterday

Maximum temperature yesterday: 55 °F (at 12:20 AM)
Minimum temperature yesterday: 48 °F (at 7:20 AM)
Average temperature yesterday: 51 °F

Past Weeks' High & Low Weather Summary

 TemperatureHumidityPressure
High75 °F (May 11, 4:20 PM)94% (May 12, 2:20 AM)30.33 "Hg (May 12, 2:20 AM)
Low37 °F (May 15, 3:20 AM)36% (May 10, 4:20 PM)29.53 "Hg (May 18, 9:20 PM)
Average51 °F73%30.04 "Hg
* Reported May 9 8:20 AM — May 24 8:20 AM, Wilhelmshaven, Weather by CustomWeather, © 2015

Note: Actual official high and low records may vary slightly from our data, if they occured in-between our weather recording intervals... More about our weather records

Advertising

Wilhelmshaven weather history for previous 24 hours

 ConditionsComfort  
Time TempWeatherWind HumidityBarometerVisibility
8:20 AM
Sun, May 24
48 °FPartly sunny.7 mph71%30.15 "HgN/A
7:20 AM48 °FPartly sunny.2 mph66%30.15 "HgN/A
6:20 AM46 °FPartly sunny.3 mph76%30.18 "HgN/A
5:20 AM46 °FPassing clouds.5 mph82%30.18 "HgN/A
4:20 AM46 °FPassing clouds.3 mph82%30.15 "HgN/A
3:20 AM46 °FPassing clouds.1 mph82%30.18 "HgN/A
2:20 AM46 °FPassing clouds.2 mph76%30.18 "HgN/A
1:20 AM48 °FPassing clouds.3 mph76%30.18 "HgN/A
12:20 AM48 °FPassing clouds.3 mph76%30.21 "HgN/A
11:20 PM
Sat, May 23
48 °FPassing clouds.2 mph76%30.21 "HgN/A
10:20 PM48 °FPartly sunny.3 mph76%30.21 "HgN/A
9:20 PM48 °FPartly sunny.6 mph71%30.21 "HgN/A
8:20 PM50 °FPartly sunny.8 mph67%30.21 "HgN/A
7:20 PM50 °FPartly sunny.10 mph67%30.21 "HgN/A
6:20 PM52 °FPartly sunny.10 mph67%30.21 "HgN/A
5:20 PM52 °FPassing clouds.10 mph62%30.21 "HgN/A
4:20 PM52 °FScattered clouds.13 mph62%30.21 "HgN/A
3:20 PM52 °FPassing clouds.13 mph62%30.21 "HgN/A
2:20 PM54 °FScattered clouds.14 mph63%30.21 "HgN/A
1:20 PM52 °FScattered clouds.13 mph62%30.21 "HgN/A
12:20 PM52 °FScattered clouds.12 mph67%30.21 "HgN/A
11:20 AM52 °FScattered clouds.13 mph72%30.21 "HgN/A
10:20 AM50 °FPartly sunny.10 mph82%30.21 "HgN/A
9:20 AM48 °FDrizzle. Partly sunny.7 mph94%30.21 "Hg4 mi
Weather by CustomWeather, © 2015

See weather overviewHow to use our weather pages